Time,TemperatureF,DewpointF,PressureIn,WindDirection,WindDirectionDegrees,WindSpeedMPH,WindSpeedGustMPH,Humidity,HourlyPrecipIn,Conditions,Clouds,dailyrainin,SoftwareType,DateUTC
2013-02-04 00:02:00,47.1,25.2,18.63,SSE,158,3.6,4.9,42,0.00,,---,0.00,VWS V14.00,2013-02-04 06:02:00,
2013-02-04 00:07:00,47.3,25.4,17.72,SE,131,2.2,4.0,42,0.00,,---,0.00,VWS V14.00,2013-02-04 06:07:00,
2013-02-04 00:12:00,47.3,25.4,17.72,SSW,198,3.1,3.1,42,0.00,,---,0.00,VWS V14.00,2013-02-04 06:12:00,
2013-02-04 00:18:00,47.3,25.4,17.72,South,173,0.0,0.0,42,0.00,,---,0.00,VWS V14.00,2013-02-04 06:18:00,
2013-02-04 00:23:00,47.3,25.4,17.72,SSW,199,3.1,4.0,42,0.00,,---,0.00,VWS V14.00,2013-02-04 06:23:00,
2013-02-04 00:28:00,47.5,25.5,17.72,WNW,284,4.0,4.0,42,0.00,,---,0.00,VWS V14.00,2013-02-04 06:28:00,
2013-02-04 00:33:00,47.5,25.5,17.72,West,266,3.1,3.6,42,0.00,,---,0.00,VWS V14.00,2013-02-04 06:33:00,
2013-02-04 00:38:00,47.3,25.4,17.72,West,267,0.0,2.2,42,0.00,,---,0.00,VWS V14.00,2013-02-04 06:38:00,
2013-02-04 00:43:00,46.8,25.5,17.72,West,267,0.0,0.0,43,0.00,,---,0.00,VWS V14.00,2013-02-04 06:43:00,
2013-02-04 00:48:00,46.2,25.0,17.72,West,267,2.2,2.2,43,0.00,,---,0.00,VWS V14.00,2013-02-04 06:48:00,
2013-02-04 00:53:00,45.9,25.2,17.72,WSW,245,2.7,3.6,44,0.00,,---,0.00,VWS V14.00,2013-02-04 06:53:00,
2013-02-04 00:58:00,45.7,25.6,17.72,WSW,245,0.0,0.0,45,0.00,,---,0.00,VWS V14.00,2013-02-04 06:58:00,
2013-02-04 01:03:00,45.9,25.7,17.72,WSW,245,0.0,0.0,45,0.00,,---,0.00,VWS V14.00,2013-02-04 07:03:00,
2013-02-04 01:08:00,45.9,25.7,17.72,WSW,245,0.0,0.0,45,0.00,,---,0.00,VWS V14.00,2013-02-04 07:08:00,
2013-02-04 01:13:00,45.5,25.4,17.72,WSW,245,0.0,0.0,45,0.00,,---,0.00,VWS V14.00,2013-02-04 07:13:00,
2013-02-04 01:19:00,45.1,25.1,17.72,WSW,245,0.0,0.0,45,0.00,,---,0.00,VWS V14.00,2013-02-04 07:19:00,
2013-02-04 01:24:00,44.6,24.6,17.72,WSW,245,0.0,0.0,45,0.00,,---,0.00,VWS V14.00,2013-02-04 07:24:00,
2013-02-04 01:29:00,44.2,24.3,17.72,WSW,246,0.0,0.0,45,0.00,,---,0.00,VWS V14.00,2013-02-04 07:29:00,
2013-02-04 01:34:00,43.9,24.5,17.72,WSW,245,0.0,0.0,46,0.00,,---,0.00,VWS V14.00,2013-02-04 07:34:00,
2013-02-04 01:39:00,43.5,24.1,17.72,South,184,2.2,2.2,46,0.00,,---,0.00,VWS V14.00,2013-02-04 07:39:00,
2013-02-04 01:44:00,43.2,24.8,17.72,SE,134,2.2,3.1,48,0.00,,---,0.00,VWS V14.00,2013-02-04 07:44:00,
2013-02-04 01:49:00,43.0,24.6,17.72,SE,142,2.7,4.0,48,0.00,,---,0.00,VWS V14.00,2013-02-04 07:49:00,
2013-02-04 01:54:00,43.0,24.6,17.72,SE,143,0.0,2.2,48,0.00,,---,0.00,VWS V14.00,2013-02-04 07:54:00,
2013-02-04 01:59:00,43.0,25.1,17.72,SE,146,0.0,0.0,49,0.00,,---,0.00,VWS V14.00,2013-02-04 07:59:00,
2013-02-04 02:05:00,42.8,25.0,17.72,SE,146,0.0,0.0,49,0.00,,---,0.00,VWS V14.00,2013-02-04 08:05:00,
2013-02-04 02:10:00,42.6,24.8,17.72,SE,146,0.0,0.0,49,0.00,,---,0.00,VWS V14.00,2013-02-04 08:10:00,
2013-02-04 02:15:00,42.3,24.5,17.72,SE,146,0.0,0.0,49,0.00,,---,0.00,VWS V14.00,2013-02-04 08:15:00,
2013-02-04 02:20:00,42.1,24.3,17.72,SE,146,0.0,0.0,49,0.00,,---,0.00,VWS V14.00,2013-02-04 08:20:00,
2013-02-04 02:25:00,41.5,23.8,17.72,SE,146,0.0,0.0,49,0.00,,---,0.00,VWS V14.00,2013-02-04 08:25:00,
2013-02-04 02:30:00,41.2,24.0,17.72,SE,146,0.0,0.0,50,0.00,,---,0.00,VWS V14.00,2013-02-04 08:30:00,
2013-02-04 02:35:00,41.0,23.8,17.72,SE,146,0.0,0.0,50,0.00,,---,0.00,VWS V14.00,2013-02-04 08:35:00,
2013-02-04 02:40:00,40.6,23.5,17.72,SSE,149,2.7,2.7,50,0.00,,---,0.00,VWS V14.00,2013-02-04 08:40:00,
2013-02-04 02:45:00,40.6,23.9,17.72,SSW,192,0.0,0.0,51,0.00,,---,0.00,VWS V14.00,2013-02-04 08:45:00,
2013-02-04 02:50:00,40.6,24.4,17.72,SSW,192,0.0,0.0,52,0.00,,---,0.00,VWS V14.00,2013-02-04 08:50:00,
2013-02-04 02:55:00,40.6,24.4,17.72,SSW,192,0.0,0.0,52,0.00,,---,0.00,VWS V14.00,2013-02-04 08:55:00,
2013-02-04 03:00:00,40.5,24.2,17.72,SSW,192,0.0,0.0,52,0.00,,---,0.00,VWS V14.00,2013-02-04 09:00:00,
2013-02-04 03:05:00,40.1,23.9,17.72,SSW,192,0.0,0.0,52,0.00,,---,0.00,VWS V14.00,2013-02-04 09:05:00,
2013-02-04 03:10:00,39.9,23.7,17.72,SSW,192,0.0,0.0,52,0.00,,---,0.00,VWS V14.00,2013-02-04 09:10:00,
2013-02-04 03:16:00,39.7,24.0,17.72,SSW,192,0.0,0.0,53,0.00,,---,0.00,VWS V14.00,2013-02-04 09:16:00,
2013-02-04 03:21:00,39.6,23.9,17.72,SSW,192,0.0,0.0,53,0.00,,---,0.00,VWS V14.00,2013-02-04 09:21:00,
2013-02-04 03:26:00,39.2,23.5,17.72,SSW,192,0.0,0.0,53,0.00,,---,0.00,VWS V14.00,2013-02-04 09:26:00,
2013-02-04 03:31:00,38.8,23.6,17.72,SSW,193,0.0,0.0,54,0.00,,---,0.00,VWS V14.00,2013-02-04 09:31:00,
2013-02-04 03:36:00,38.7,23.5,17.72,SSW,193,0.0,0.0,54,0.00,,---,0.00,VWS V14.00,2013-02-04 09:36:00,
2013-02-04 03:41:00,38.5,23.3,17.72,SSW,193,0.0,0.0,54,0.00,,---,0.00,VWS V14.00,2013-02-04 09:41:00,
2013-02-04 03:46:00,38.1,23.0,17.72,SSW,193,0.0,0.0,54,0.00,,---,0.00,VWS V14.00,2013-02-04 09:46:00,
2013-02-04 03:51:00,37.4,22.3,17.72,SSW,193,0.0,0.0,54,0.00,,---,0.00,VWS V14.00,2013-02-04 09:51:00,
2013-02-04 03:56:00,36.9,21.8,17.72,SSW,193,0.0,0.0,54,0.00,,---,0.00,VWS V14.00,2013-02-04 09:56:00,
2013-02-04 04:01:00,36.3,21.3,17.72,SSW,193,0.0,0.0,54,0.00,,---,0.00,VWS V14.00,2013-02-04 10:01:00,
2013-02-04 04:06:00,35.8,21.2,17.72,SSW,193,0.0,0.0,55,0.00,,---,0.00,VWS V14.00,2013-02-04 10:06:00,
2013-02-04 04:11:00,35.4,20.9,17.72,SSW,193,0.0,0.0,55,0.00,,---,0.00,VWS V14.00,2013-02-04 10:11:00,
2013-02-04 04:16:00,35.1,21.0,17.72,SSW,193,0.0,0.0,56,0.00,,---,0.00,VWS V14.00,2013-02-04 10:16:00,
2013-02-04 04:22:00,34.5,20.5,17.72,SSW,193,0.0,0.0,56,0.00,,---,0.00,VWS V14.00,2013-02-04 10:22:00,
2013-02-04 04:27:00,34.5,21.7,17.72,SSW,193,0.0,0.0,59,0.00,,---,0.00,VWS V14.00,2013-02-04 10:27:00,
2013-02-04 04:32:00,34.5,23.2,17.72,West,264,2.2,4.0,63,0.00,,---,0.00,VWS V14.00,2013-02-04 10:32:00,
2013-02-04 04:37:00,34.9,24.7,17.72,WNW,285,4.5,4.5,66,0.00,,---,0.00,VWS V14.00,2013-02-04 10:37:00,
2013-02-04 04:42:00,35.4,25.9,17.72,WNW,292,2.2,2.7,68,0.00,,---,0.00,VWS V14.00,2013-02-04 10:42:00,
2013-02-04 04:47:00,35.8,26.6,17.72,WNW,282,4.0,4.0,69,0.00,,---,0.00,VWS V14.00,2013-02-04 10:47:00,
2013-02-04 04:52:00,36.1,26.6,17.72,NW,310,3.6,3.6,68,0.00,,---,0.00,VWS V14.00,2013-02-04 10:52:00,
2013-02-04 04:57:00,36.3,26.4,17.72,West,279,3.1,3.1,67,0.00,,---,0.00,VWS V14.00,2013-02-04 10:57:00,
2013-02-04 05:02:00,36.1,25.9,17.72,West,276,2.2,3.1,66,0.00,,---,0.00,VWS V14.00,2013-02-04 11:02:00,
2013-02-04 05:08:00,36.1,25.9,17.72,WNW,284,2.7,3.6,66,0.00,,---,0.00,VWS V14.00,2013-02-04 11:08:00,
2013-02-04 05:13:00,35.8,25.5,17.72,WNW,300,2.2,2.2,66,0.00,,---,0.00,VWS V14.00,2013-02-04 11:13:00,
2013-02-04 05:18:00,35.6,25.4,17.72,WNW,298,3.1,4.9,66,0.00,,---,0.00,VWS V14.00,2013-02-04 11:18:00,
2013-02-04 05:23:00,35.4,25.2,17.72,WNW,286,2.7,3.1,66,0.00,,---,0.00,VWS V14.00,2013-02-04 11:23:00,
2013-02-04 05:28:00,35.2,25.0,17.72,West,275,3.1,3.6,66,0.00,,---,0.00,VWS V14.00,2013-02-04 11:28:00,
2013-02-04 05:33:00,34.9,24.7,17.72,West,277,0.0,2.7,66,0.00,,---,0.00,VWS V14.00,2013-02-04 11:33:00,
2013-02-04 05:38:00,34.7,24.9,17.72,West,273,2.7,3.1,67,0.00,,---,0.00,VWS V14.00,2013-02-04 11:38:00,
2013-02-04 05:43:00,34.5,25.1,17.72,WNW,288,0.0,2.7,68,0.00,,---,0.00,VWS V14.00,2013-02-04 11:43:00,
2013-02-04 05:48:00,34.3,24.9,17.72,WNW,282,2.7,2.7,68,0.00,,---,0.00,VWS V14.00,2013-02-04 11:48:00,
2013-02-04 05:54:00,34.2,24.7,17.72,WNW,282,2.7,4.0,68,0.00,,---,0.00,VWS V14.00,2013-02-04 11:54:00,
2013-02-04 05:59:00,33.8,24.4,17.72,WNW,282,0.0,0.0,68,0.00,,---,0.00,VWS V14.00,2013-02-04 11:59:00,
2013-02-04 06:04:00,33.6,24.2,17.72,WNW,282,0.0,0.0,68,0.00,,---,0.00,VWS V14.00,2013-02-04 12:04:00,
2013-02-04 06:09:00,33.3,24.2,17.72,WNW,282,0.0,0.0,69,0.00,,---,0.00,VWS V14.00,2013-02-04 12:09:00,
2013-02-04 06:14:00,32.9,23.9,17.72,WNW,282,3.1,3.6,69,0.00,,---,0.00,VWS V14.00,2013-02-04 12:14:00,
2013-02-04 06:19:00,32.9,24.2,17.72,WNW,282,2.2,3.1,70,0.00,,---,0.00,VWS V14.00,2013-02-04 12:19:00,
2013-02-04 06:24:00,33.1,25.0,17.72,NW,307,0.0,0.0,72,0.00,,---,0.00,VWS V14.00,2013-02-04 12:24:00,
2013-02-04 06:29:00,33.3,25.2,17.72,NW,307,0.0,0.0,72,0.00,,---,0.00,VWS V14.00,2013-02-04 12:29:00,
2013-02-04 06:34:00,33.3,24.9,17.72,NW,307,0.0,0.0,71,0.00,,---,0.00,VWS V14.00,2013-02-04 12:34:00,
2013-02-04 06:40:00,33.1,24.4,17.72,NW,307,0.0,0.0,70,0.00,,---,0.00,VWS V14.00,2013-02-04 12:40:00,
2013-02-04 06:45:00,32.7,23.7,17.72,WNW,290,0.0,0.0,69,0.00,,---,0.00,VWS V14.00,2013-02-04 12:45:00,
2013-02-04 06:50:00,32.5,23.9,17.72,WNW,290,0.0,0.0,70,0.00,,---,0.00,VWS V14.00,2013-02-04 12:50:00,
2013-02-04 06:55:00,32.5,23.9,17.72,West,281,3.1,3.1,70,0.00,,---,0.00,VWS V14.00,2013-02-04 12:55:00,
2013-02-04 07:00:00,32.7,24.4,17.72,WNW,282,2.7,3.6,71,0.00,,---,0.00,VWS V14.00,2013-02-04 13:00:00,
2013-02-04 07:05:00,32.7,24.4,17.72,WNW,282,0.0,0.0,71,0.00,,---,0.00,VWS V14.00,2013-02-04 13:05:00,
2013-02-04 07:10:00,32.5,24.2,17.72,WNW,282,0.0,0.0,71,0.00,,---,0.00,VWS V14.00,2013-02-04 13:10:00,
2013-02-04 07:15:00,32.5,24.2,17.72,WNW,282,0.0,0.0,71,0.00,,---,0.00,VWS V14.00,2013-02-04 13:15:00,
2013-02-04 07:20:00,32.4,24.0,17.72,WNW,282,0.0,0.0,71,0.00,,---,0.00,VWS V14.00,2013-02-04 13:20:00,
2013-02-04 07:25:00,32.2,23.5,17.72,WNW,282,2.2,2.7,70,0.00,,---,0.00,VWS V14.00,2013-02-04 13:25:00,
2013-02-04 07:31:00,31.8,23.2,17.72,WNW,282,0.0,0.0,70,0.00,,---,0.00,VWS V14.00,2013-02-04 13:31:00,
2013-02-04 07:36:00,31.5,22.8,17.72,WNW,282,0.0,0.0,70,0.00,,---,0.00,VWS V14.00,2013-02-04 13:36:00,
2013-02-04 07:41:00,31.1,22.5,17.72,WNW,282,0.0,0.0,70,0.00,,---,0.00,VWS V14.00,2013-02-04 13:41:00,
2013-02-04 07:46:00,30.9,22.3,17.72,WNW,282,0.0,0.0,70,0.00,,---,0.00,VWS V14.00,2013-02-04 13:46:00,
2013-02-04 07:51:00,30.9,23.0,17.72,WNW,283,2.7,2.7,72,0.00,,---,0.00,VWS V14.00,2013-02-04 13:51:00,
2013-02-04 07:56:00,31.3,24.0,17.72,WNW,283,2.2,2.2,74,0.00,,---,0.00,VWS V14.00,2013-02-04 13:56:00,
2013-02-04 08:01:00,31.5,24.1,17.72,WNW,283,0.0,2.2,74,0.00,,---,0.00,VWS V14.00,2013-02-04 14:01:00,
2013-02-04 08:06:00,32.0,25.0,17.72,WNW,285,2.2,3.6,75,0.00,,---,0.00,VWS V14.00,2013-02-04 14:06:00,
2013-02-04 08:11:00,32.5,25.8,17.72,WNW,303,4.0,4.0,76,0.00,,---,0.00,VWS V14.00,2013-02-04 14:11:00,
2013-02-04 08:16:00,32.9,26.2,17.72,NW,315,2.7,3.1,76,0.00,,---,0.00,VWS V14.00,2013-02-04 14:16:00,
2013-02-04 08:21:00,33.3,26.2,17.72,NW,311,0.0,0.0,75,0.00,,---,0.00,VWS V14.00,2013-02-04 14:21:00,
2013-02-04 08:27:00,33.4,26.1,17.72,NW,310,0.0,0.0,74,0.00,,---,0.00,VWS V14.00,2013-02-04 14:27:00,
2013-02-04 08:32:00,33.8,26.1,17.72,NW,310,0.0,3.1,73,0.00,,---,0.00,VWS V14.00,2013-02-04 14:32:00,
2013-02-04 08:37:00,34.3,26.9,17.72,NW,305,3.6,3.6,74,0.00,,---,0.00,VWS V14.00,2013-02-04 14:37:00,
2013-02-04 08:42:00,34.7,27.0,17.72,NW,309,4.9,4.9,73,0.00,,---,0.00,VWS V14.00,2013-02-04 14:42:00,
2013-02-04 08:47:00,35.1,27.0,17.72,West,280,2.7,4.0,72,0.00,,---,0.00,VWS V14.00,2013-02-04 14:47:00,
2013-02-04 08:52:00,35.4,27.3,17.72,WNW,301,0.0,0.0,72,0.00,,---,0.00,VWS V14.00,2013-02-04 14:52:00,
2013-02-04 08:57:00,35.8,27.0,17.72,WNW,302,2.7,2.7,70,0.00,,---,0.00,VWS V14.00,2013-02-04 14:57:00,
2013-02-04 09:02:00,36.3,27.5,17.72,NW,305,3.1,3.1,70,0.00,,---,0.00,VWS V14.00,2013-02-04 15:02:00,
2013-02-04 09:07:00,36.9,27.7,17.72,NW,307,3.1,3.6,69,0.00,,---,0.00,VWS V14.00,2013-02-04 15:07:00,
2013-02-04 09:12:00,37.4,27.8,17.72,NW,308,2.7,4.0,68,0.00,,---,0.00,VWS V14.00,2013-02-04 15:12:00,
2013-02-04 09:17:00,38.1,27.0,17.72,NW,310,2.7,4.0,64,0.00,,---,0.00,VWS V14.00,2013-02-04 15:17:00,
2013-02-04 09:22:00,38.5,26.6,17.72,NNW,343,2.7,4.9,62,0.00,,---,0.00,VWS V14.00,2013-02-04 15:22:00,
2013-02-04 09:27:00,38.8,26.2,17.72,NNW,328,4.5,4.5,60,0.00,,---,0.00,VWS V14.00,2013-02-04 15:27:00,
2013-02-04 09:33:00,39.2,26.1,17.72,NW,310,3.1,3.1,59,0.00,,---,0.00,VWS V14.00,2013-02-04 15:33:00,
2013-02-04 09:38:00,39.4,25.9,17.72,NW,321,2.7,4.0,58,0.00,,---,0.00,VWS V14.00,2013-02-04 15:38:00,
2013-02-04 09:43:00,39.9,26.4,17.72,WNW,303,4.0,4.0,58,0.00,,---,0.00,VWS V14.00,2013-02-04 15:43:00,
2013-02-04 09:48:00,40.3,25.9,17.72,NW,318,3.1,5.8,56,0.00,,---,0.00,VWS V14.00,2013-02-04 15:48:00,
2013-02-04 09:53:00,40.6,25.3,17.72,NNW,340,5.4,7.6,54,0.00,,---,0.00,VWS V14.00,2013-02-04 15:53:00,
2013-02-04 09:58:00,41.4,26.0,17.72,NW,312,4.0,4.0,54,0.00,,---,0.00,VWS V14.00,2013-02-04 15:58:00,
2013-02-04 10:03:00,41.9,25.1,17.72,North,3,6.3,6.3,51,0.00,,---,0.00,VWS V14.00,2013-02-04 16:03:00,
2013-02-04 10:08:00,42.1,25.3,17.72,NW,321,3.6,5.8,51,0.00,,---,0.00,VWS V14.00,2013-02-04 16:08:00,
2013-02-04 10:13:00,42.4,25.6,17.72,NNW,330,3.1,5.8,51,0.00,,---,0.00,VWS V14.00,2013-02-04 16:13:00,
2013-02-04 10:18:00,42.8,25.5,17.72,NNW,331,5.8,10.5,50,0.00,,---,0.00,VWS V14.00,2013-02-04 16:18:00,
2013-02-04 10:23:00,43.3,26.0,17.72,North,353,8.1,8.1,50,0.00,,---,0.00,VWS V14.00,2013-02-04 16:23:00,
2013-02-04 10:28:00,44.1,26.1,17.72,North,0,5.8,8.1,49,0.00,,---,0.00,VWS V14.00,2013-02-04 16:28:00,
2013-02-04 10:33:00,44.2,25.8,17.72,NNW,348,3.6,5.4,48,0.00,,---,0.00,VWS V14.00,2013-02-04 16:33:00,
2013-02-04 10:39:00,44.4,26.0,17.72,NW,321,5.4,5.8,48,0.00,,---,0.00,VWS V14.00,2013-02-04 16:39:00,
2013-02-04 10:44:00,44.6,25.6,17.72,WNW,301,5.8,5.8,47,0.00,,---,0.00,VWS V14.00,2013-02-04 16:44:00,
2013-02-04 10:49:00,44.4,26.0,17.72,NW,320,4.0,5.8,48,0.00,,---,0.00,VWS V14.00,2013-02-04 16:49:00,
2013-02-04 10:54:00,44.6,26.1,17.72,NNW,340,5.8,5.8,48,0.00,,---,0.00,VWS V14.00,2013-02-04 16:54:00,
2013-02-04 10:59:00,44.8,25.8,17.72,NW,319,5.8,5.8,47,0.00,,---,0.00,VWS V14.00,2013-02-04 16:59:00,
2013-02-04 11:04:00,45.0,24.9,17.72,NNW,331,3.1,4.0,45,0.00,,---,0.00,VWS V14.00,2013-02-04 17:04:00,
2013-02-04 11:09:00,45.3,25.8,17.72,NNW,327,3.1,4.0,46,0.00,,---,0.00,VWS V14.00,2013-02-04 17:09:00,
2013-02-04 11:14:00,45.9,25.7,17.72,WNW,293,5.4,5.4,45,0.00,,---,0.00,VWS V14.00,2013-02-04 17:14:00,
2013-02-04 11:19:00,45.9,25.7,17.72,NW,322,8.3,8.3,45,0.00,,---,0.00,VWS V14.00,2013-02-04 17:19:00,
2013-02-04 11:24:00,46.0,25.4,17.72,North,2,3.6,5.4,44,0.00,,---,0.00,VWS V14.00,2013-02-04 17:24:00,
2013-02-04 11:29:00,46.2,25.5,17.72,NW,314,3.1,3.1,44,0.00,,---,0.00,VWS V14.00,2013-02-04 17:29:00,
2013-02-04 11:35:00,46.2,25.5,17.72,NNW,328,6.7,7.6,44,0.00,,---,0.00,VWS V14.00,2013-02-04 17:35:00,
2013-02-04 11:40:00,46.2,25.5,17.72,NNW,329,5.4,5.4,44,0.00,,---,0.00,VWS V14.00,2013-02-04 17:40:00,
2013-02-04 11:45:00,46.6,25.9,17.72,North,0,3.1,4.0,44,0.00,,---,0.00,VWS V14.00,2013-02-04 17:45:00,
2013-02-04 11:50:00,46.8,24.9,17.72,NNW,333,3.6,5.4,42,0.00,,---,0.00,VWS V14.00,2013-02-04 17:50:00,
2013-02-04 11:55:00,47.1,25.8,17.72,North,0,3.1,5.4,43,0.00,,---,0.00,VWS V14.00,2013-02-04 17:55:00,
2013-02-04 12:00:00,47.1,25.8,17.72,North,353,5.8,5.8,43,0.00,,---,0.00,VWS V14.00,2013-02-04 18:00:00,
2013-02-04 12:05:00,46.9,25.1,17.72,NNW,335,4.0,7.6,42,0.00,,---,0.00,VWS V14.00,2013-02-04 18:05:00,
2013-02-04 12:10:00,46.8,25.5,17.72,NW,317,2.7,3.6,43,0.00,,---,0.00,VWS V14.00,2013-02-04 18:10:00,
2013-02-04 12:15:00,46.8,24.9,17.72,SW,234,5.8,8.1,42,0.00,,---,0.00,VWS V14.00,2013-02-04 18:15:00,
2013-02-04 12:20:00,46.6,25.3,17.72,NW,313,5.8,5.8,43,0.00,,---,0.00,VWS V14.00,2013-02-04 18:20:00,
2013-02-04 12:25:00,46.6,25.3,17.72,NW,324,3.6,5.4,43,0.00,,---,0.00,VWS V14.00,2013-02-04 18:25:00,
2013-02-04 12:30:00,47.1,26.3,17.72,NNW,344,2.7,4.0,44,0.00,,---,0.00,VWS V14.00,2013-02-04 18:30:00,
2013-02-04 12:35:00,47.3,25.4,17.72,North,0,3.1,5.4,42,0.00,,---,0.00,VWS V14.00,2013-02-04 18:35:00,
2013-02-04 12:41:00,47.3,26.0,17.72,NW,323,4.0,5.8,43,0.00,,---,0.00,VWS V14.00,2013-02-04 18:41:00,
2013-02-04 12:46:00,47.5,26.1,17.72,NE,37,5.4,5.4,43,0.00,,---,0.00,VWS V14.00,2013-02-04 18:46:00,
2013-02-04 12:51:00,48.0,26.0,17.72,NW,323,3.1,3.1,42,0.00,,---,0.00,VWS V14.00,2013-02-04 18:51:00,
2013-02-04 12:56:00,48.2,25.6,17.72,West,280,2.7,3.6,41,0.00,,---,0.00,VWS V14.00,2013-02-04 18:56:00,
2013-02-04 13:01:00,47.8,25.9,17.72,NW,308,2.7,3.1,42,0.00,,---,0.00,VWS V14.00,2013-02-04 19:01:00,
2013-02-04 13:06:00,47.8,25.9,17.72,NNW,346,4.9,5.4,42,0.00,,---,0.00,VWS V14.00,2013-02-04 19:06:00,
2013-02-04 13:11:00,48.2,25.6,17.72,NNW,328,4.0,4.0,41,0.00,,---,0.00,VWS V14.00,2013-02-04 19:11:00,
2013-02-04 13:16:00,48.4,26.4,17.72,NW,313,5.8,5.8,42,0.00,,---,0.00,VWS V14.00,2013-02-04 19:16:00,
2013-02-04 13:21:00,48.4,26.4,17.72,NW,315,4.0,4.9,42,0.00,,---,0.00,VWS V14.00,2013-02-04 19:21:00,
2013-02-04 13:27:00,48.4,26.9,17.72,West,279,3.1,4.9,43,0.00,,---,0.00,VWS V14.00,2013-02-04 19:27:00,
2013-02-04 13:32:00,48.2,26.8,17.72,WNW,283,4.9,5.4,43,0.00,,---,0.00,VWS V14.00,2013-02-04 19:32:00,
2013-02-04 13:37:00,48.4,26.4,17.72,NNW,332,5.8,7.6,42,0.00,,---,0.00,VWS V14.00,2013-02-04 19:37:00,
2013-02-04 13:42:00,48.0,26.6,17.72,NW,322,8.3,8.3,43,0.00,,---,0.00,VWS V14.00,2013-02-04 19:42:00,
2013-02-04 13:47:00,48.0,26.0,17.72,NW,324,4.9,5.8,42,0.00,,---,0.00,VWS V14.00,2013-02-04 19:47:00,
2013-02-04 13:52:00,47.8,26.4,17.72,NW,316,3.6,3.6,43,0.00,,---,0.00,VWS V14.00,2013-02-04 19:52:00,
2013-02-04 13:57:00,47.8,25.9,17.72,WNW,291,2.7,5.4,42,0.00,,---,0.00,VWS V14.00,2013-02-04 19:57:00,
2013-02-04 14:02:00,47.7,25.7,17.72,NW,320,5.4,6.3,42,0.00,,---,0.00,VWS V14.00,2013-02-04 20:02:00,
2013-02-04 14:07:00,47.5,26.1,17.72,North,0,3.6,4.9,43,0.00,,---,0.00,VWS V14.00,2013-02-04 20:07:00,
2013-02-04 14:12:00,47.3,26.0,17.72,NW,324,5.8,5.8,43,0.00,,---,0.00,VWS V14.00,2013-02-04 20:12:00,
2013-02-04 14:18:00,47.1,26.3,17.72,SW,234,7.2,7.2,44,0.00,,---,0.00,VWS V14.00,2013-02-04 20:18:00,
2013-02-04 14:23:00,47.5,26.7,17.72,NNW,346,3.6,4.0,44,0.00,,---,0.00,VWS V14.00,2013-02-04 20:23:00,
2013-02-04 14:28:00,47.7,26.3,17.72,NW,319,3.1,3.1,43,0.00,,---,0.00,VWS V14.00,2013-02-04 20:28:00,
2013-02-04 14:33:00,47.3,26.0,17.72,NW,307,5.8,5.8,43,0.00,,---,0.00,VWS V14.00,2013-02-04 20:33:00,
2013-02-04 14:38:00,46.2,25.5,17.72,West,268,4.0,4.0,44,0.00,,---,0.00,VWS V14.00,2013-02-04 20:38:00,
2013-02-04 14:43:00,46.0,26.4,17.72,NW,304,3.6,5.4,46,0.00,,---,0.00,VWS V14.00,2013-02-04 20:43:00,
2013-02-04 14:48:00,46.0,26.4,17.72,West,267,5.8,6.3,46,0.00,,---,0.00,VWS V14.00,2013-02-04 20:48:00,
2013-02-04 14:53:00,46.4,26.2,17.72,NW,304,4.0,5.8,45,0.00,,---,0.00,VWS V14.00,2013-02-04 20:53:00,
2013-02-04 14:58:00,46.8,27.1,17.72,NW,316,5.8,5.8,46,0.00,,---,0.00,VWS V14.00,2013-02-04 20:58:00,
2013-02-04 15:04:00,46.8,26.6,17.72,NW,312,4.0,4.0,45,0.00,,---,0.00,VWS V14.00,2013-02-04 21:04:00,
2013-02-04 15:09:00,46.8,26.0,17.72,NW,304,3.1,4.0,44,0.00,,---,0.00,VWS V14.00,2013-02-04 21:09:00,
2013-02-04 15:14:00,46.6,26.4,17.72,WNW,298,3.6,4.9,45,0.00,,---,0.00,VWS V14.00,2013-02-04 21:14:00,
2013-02-04 15:19:00,46.6,25.9,17.72,NW,312,2.7,3.1,44,0.00,,---,0.00,VWS V14.00,2013-02-04 21:19:00,
2013-02-04 15:24:00,46.0,25.9,17.72,NW,313,4.9,5.4,45,0.00,,---,0.00,VWS V14.00,2013-02-04 21:24:00,
2013-02-04 15:29:00,46.4,26.2,17.72,WNW,297,4.9,4.9,45,0.00,,---,0.00,VWS V14.00,2013-02-04 21:29:00,
2013-02-04 15:34:00,46.4,25.7,17.72,West,269,3.6,4.0,44,0.00,,---,0.00,VWS V14.00,2013-02-04 21:34:00,
2013-02-04 15:39:00,45.7,25.6,17.72,NNW,328,2.7,4.0,45,0.00,,---,0.00,VWS V14.00,2013-02-04 21:39:00,
2013-02-04 15:44:00,45.3,26.3,17.72,NW,307,3.1,5.4,47,0.00,,---,0.00,VWS V14.00,2013-02-04 21:44:00,
2013-02-04 15:50:00,45.5,26.5,17.72,NNW,341,2.7,4.9,47,0.00,,---,0.00,VWS V14.00,2013-02-04 21:50:00,
2013-02-04 15:55:00,45.9,26.3,17.72,NW,319,4.0,6.3,46,0.00,,---,0.00,VWS V14.00,2013-02-04 21:55:00,
2013-02-04 16:00:00,45.7,26.1,17.72,WNW,284,5.8,5.8,46,0.00,,---,0.00,VWS V14.00,2013-02-04 22:00:00,
2013-02-04 16:05:00,45.7,26.1,17.72,WNW,294,3.6,4.9,46,0.00,,---,0.00,VWS V14.00,2013-02-04 22:05:00,
2013-02-04 16:10:00,45.9,26.3,17.72,NW,314,4.9,4.9,46,0.00,,---,0.00,VWS V14.00,2013-02-04 22:10:00,
2013-02-04 16:15:00,45.7,26.1,17.72,NNW,343,3.1,4.9,46,0.00,,---,0.00,VWS V14.00,2013-02-04 22:15:00,
2013-02-04 16:20:00,45.7,26.6,17.72,NW,320,2.2,3.6,47,0.00,,---,0.00,VWS V14.00,2013-02-04 22:20:00,
2013-02-04 16:25:00,45.5,25.9,17.72,NNW,344,3.1,3.1,46,0.00,,---,0.00,VWS V14.00,2013-02-04 22:25:00,
2013-02-04 16:30:00,45.3,25.8,17.72,NW,307,3.6,4.9,46,0.00,,---,0.00,VWS V14.00,2013-02-04 22:30:00,
2013-02-04 16:36:00,44.8,25.8,17.72,NNE,17,3.6,4.9,47,0.00,,---,0.00,VWS V14.00,2013-02-04 22:36:00,
2013-02-04 16:41:00,44.6,25.6,17.72,NNE,27,2.7,5.8,47,0.00,,---,0.00,VWS V14.00,2013-02-04 22:41:00,
2013-02-04 16:46:00,44.2,25.8,17.72,North,11,6.3,6.3,48,0.00,,---,0.00,VWS V14.00,2013-02-04 22:46:00,
2013-02-04 16:51:00,43.9,25.5,17.72,NNW,328,2.7,4.0,48,0.00,,---,0.00,VWS V14.00,2013-02-04 22:51:00,
2013-02-04 16:56:00,43.5,25.1,17.72,NNE,29,3.6,5.4,48,0.00,,---,0.00,VWS V14.00,2013-02-04 22:56:00,
2013-02-04 17:01:00,43.2,24.8,17.72,NNW,345,3.6,4.0,48,0.00,,---,0.00,VWS V14.00,2013-02-04 23:01:00,
2013-02-04 17:06:00,42.8,24.5,17.72,NNW,331,3.1,3.1,48,0.00,,---,0.00,VWS V14.00,2013-02-04 23:06:00,
2013-02-04 17:11:00,42.3,24.5,17.72,NE,39,5.8,5.8,49,0.00,,---,0.00,VWS V14.00,2013-02-04 23:11:00,
2013-02-04 17:16:00,42.1,24.3,17.72,NNE,22,3.1,4.9,49,0.00,,---,0.00,VWS V14.00,2013-02-04 23:16:00,
2013-02-04 17:21:00,41.7,24.0,17.72,NNE,21,4.0,5.8,49,0.00,,---,0.00,VWS V14.00,2013-02-04 23:21:00,
2013-02-04 17:26:00,41.5,24.3,17.72,NNE,29,4.0,4.0,50,0.00,,---,0.00,VWS V14.00,2013-02-04 23:26:00,
2013-02-04 17:32:00,41.2,24.0,17.72,NNE,29,2.2,5.4,50,0.00,,---,0.00,VWS V14.00,2013-02-04 23:32:00,
2013-02-04 17:37:00,40.8,23.6,17.72,NNE,29,4.0,4.0,50,0.00,,---,0.00,VWS V14.00,2013-02-04 23:37:00,
2013-02-04 17:42:00,40.3,23.1,17.72,North,9,3.1,5.4,50,0.00,,---,0.00,VWS V14.00,2013-02-04 23:42:00,
2013-02-04 17:47:00,39.9,23.3,17.72,North,7,3.6,3.6,51,0.00,,---,0.00,VWS V14.00,2013-02-04 23:47:00,
2013-02-04 17:52:00,39.7,23.1,17.72,North,7,2.7,4.0,51,0.00,,---,0.00,VWS V14.00,2013-02-04 23:52:00,
2013-02-04 17:57:00,39.4,22.8,17.72,NNE,26,2.7,3.1,51,0.00,,---,0.00,VWS V14.00,2013-02-04 23:57:00,
2013-02-04 18:02:00,39.2,22.6,17.72,North,3,2.2,3.1,51,0.00,,---,0.00,VWS V14.00,2013-02-05 00:02:00,
2013-02-04 18:07:00,38.7,22.6,17.72,North,3,0.0,0.0,52,0.00,,---,0.00,VWS V14.00,2013-02-05 00:07:00,
2013-02-04 18:12:00,38.5,22.4,17.72,North,8,2.2,2.7,52,0.00,,---,0.00,VWS V14.00,2013-02-05 00:12:00,
2013-02-04 18:18:00,38.1,22.1,17.72,North,8,0.0,0.0,52,0.00,,---,0.00,VWS V14.00,2013-02-05 00:18:00,
2013-02-04 18:23:00,37.9,22.4,17.72,North,7,0.0,0.0,53,0.00,,---,0.00,VWS V14.00,2013-02-05 00:23:00,
2013-02-04 18:28:00,37.8,22.2,17.72,North,7,2.7,3.1,53,0.00,,---,0.00,VWS V14.00,2013-02-05 00:28:00,
2013-02-04 18:33:00,37.4,21.9,17.72,NNE,13,6.7,6.7,53,0.00,,---,0.00,VWS V14.00,2013-02-05 00:33:00,
2013-02-04 18:38:00,37.2,22.1,17.72,NNE,31,2.7,2.7,54,0.00,,---,0.00,VWS V14.00,2013-02-05 00:38:00,
2013-02-04 18:43:00,36.9,21.8,17.72,NNE,33,2.2,2.7,54,0.00,,---,0.00,VWS V14.00,2013-02-05 00:43:00,
2013-02-04 18:48:00,36.5,21.5,17.72,NE,43,0.0,0.0,54,0.00,,---,0.00,VWS V14.00,2013-02-05 00:48:00,
2013-02-04 18:53:00,36.1,21.5,17.72,NNE,24,0.0,2.7,55,0.00,,---,0.00,VWS V14.00,2013-02-05 00:53:00,
2013-02-04 18:58:00,36.0,21.4,17.72,NE,38,0.0,0.0,55,0.00,,---,0.00,VWS V14.00,2013-02-05 00:58:00,
2013-02-04 19:03:00,35.6,21.0,17.72,NNE,21,3.6,3.6,55,0.00,,---,0.00,VWS V14.00,2013-02-05 01:03:00,
2013-02-04 19:08:00,35.2,21.1,17.72,NNE,21,2.2,2.7,56,0.00,,---,0.00,VWS V14.00,2013-02-05 01:08:00,
2013-02-04 19:14:00,35.1,21.0,17.72,NNE,21,0.0,3.1,56,0.00,,---,0.00,VWS V14.00,2013-02-05 01:14:00,
2013-02-04 19:19:00,34.5,20.5,17.72,NNE,21,0.0,0.0,56,0.00,,---,0.00,VWS V14.00,2013-02-05 01:19:00,
2013-02-04 19:24:00,34.3,20.7,17.72,NNE,21,0.0,0.0,57,0.00,,---,0.00,VWS V14.00,2013-02-05 01:24:00,
2013-02-04 19:29:00,34.0,20.4,17.72,NNE,21,0.0,0.0,57,0.00,,---,0.00,VWS V14.00,2013-02-05 01:29:00,
2013-02-04 19:34:00,33.6,20.4,17.72,NNE,21,0.0,0.0,58,0.00,,---,0.00,VWS V14.00,2013-02-05 01:34:00,
2013-02-04 19:39:00,33.4,20.3,17.72,NNE,21,0.0,0.0,58,0.00,,---,0.00,VWS V14.00,2013-02-05 01:39:00,
2013-02-04 19:44:00,33.3,20.1,17.72,NNE,21,0.0,0.0,58,0.00,,---,0.00,VWS V14.00,2013-02-05 01:44:00,
2013-02-04 19:49:00,32.9,19.8,17.72,NNE,21,0.0,0.0,58,0.00,,---,0.00,VWS V14.00,2013-02-05 01:49:00,
2013-02-04 19:55:00,32.7,19.6,17.72,NNE,21,0.0,0.0,58,0.00,,---,0.00,VWS V14.00,2013-02-05 01:55:00,
2013-02-04 20:00:00,32.4,19.2,17.72,NNE,21,0.0,0.0,58,0.00,,---,0.00,VWS V14.00,2013-02-05 02:00:00,
2013-02-04 20:05:00,32.0,19.3,17.72,NNE,21,0.0,0.0,59,0.00,,---,0.00,VWS V14.00,2013-02-05 02:05:00,
2013-02-04 20:10:00,31.8,19.1,17.72,NNE,21,0.0,0.0,59,0.00,,---,0.00,VWS V14.00,2013-02-05 02:10:00,
2013-02-04 20:15:00,31.5,18.8,17.72,NNE,21,0.0,0.0,59,0.00,,---,0.00,VWS V14.00,2013-02-05 02:15:00,
2013-02-04 20:20:00,31.3,18.6,17.72,NNE,21,0.0,0.0,59,0.00,,---,0.00,VWS V14.00,2013-02-05 02:20:00,
2013-02-04 20:25:00,31.3,19.0,17.72,NNE,21,0.0,0.0,60,0.00,,---,0.00,VWS V14.00,2013-02-05 02:25:00,
2013-02-04 20:30:00,31.1,18.9,17.72,NNE,21,0.0,0.0,60,0.00,,---,0.00,VWS V14.00,2013-02-05 02:30:00,
2013-02-04 20:35:00,30.9,19.1,17.72,NNE,21,0.0,0.0,61,0.00,,---,0.00,VWS V14.00,2013-02-05 02:35:00,
2013-02-04 20:40:00,30.7,18.9,17.72,NNE,21,0.0,0.0,61,0.00,,---,0.00,VWS V14.00,2013-02-05 02:40:00,
2013-02-04 20:46:00,30.6,18.7,17.72,NNE,21,0.0,0.0,61,0.00,,---,0.00,VWS V14.00,2013-02-05 02:46:00,
2013-02-04 20:51:00,30.6,19.1,17.72,NNE,21,0.0,0.0,62,0.00,,---,0.00,VWS V14.00,2013-02-05 02:51:00,
2013-02-04 20:56:00,30.6,19.1,17.72,ENE,65,0.0,2.7,62,0.00,,---,0.00,VWS V14.00,2013-02-05 02:56:00,
2013-02-04 21:01:00,30.6,19.5,17.72,ENE,66,0.0,0.0,63,0.00,,---,0.00,VWS V14.00,2013-02-05 03:01:00,
2013-02-04 21:06:00,30.7,20.0,17.72,ENE,67,0.0,0.0,64,0.00,,---,0.00,VWS V14.00,2013-02-05 03:06:00,
2013-02-04 21:11:00,30.9,20.2,17.72,ENE,67,0.0,0.0,64,0.00,,---,0.00,VWS V14.00,2013-02-05 03:11:00,
2013-02-04 21:16:00,31.1,20.7,17.72,ENE,67,2.2,2.7,65,0.00,,---,0.00,VWS V14.00,2013-02-05 03:16:00,
2013-02-04 21:37:00,31.1,21.4,17.72,ENE,70,0.0,0.0,67,0.00,,---,0.00,VWS V14.00,2013-02-05 03:37:00,
2013-02-04 21:42:00,31.1,21.4,17.72,ENE,70,2.2,2.2,67,0.00,,---,0.00,VWS V14.00,2013-02-05 03:42:00,
2013-02-04 21:47:00,30.9,21.3,17.72,ENE,70,2.7,3.1,67,0.00,,---,0.00,VWS V14.00,2013-02-05 03:47:00,
2013-02-04 21:52:00,30.9,21.6,17.72,ENE,70,3.1,3.1,68,0.00,,---,0.00,VWS V14.00,2013-02-05 03:52:00,
2013-02-04 21:57:00,31.1,21.8,17.72,ENE,58,2.7,2.7,68,0.00,,---,0.00,VWS V14.00,2013-02-05 03:57:00,
2013-02-04 22:02:00,31.1,22.1,17.72,ENE,58,2.7,3.1,69,0.00,,---,0.00,VWS V14.00,2013-02-05 04:02:00,
2013-02-04 22:08:00,31.1,22.1,17.72,ENE,61,3.6,3.6,69,0.00,,---,0.00,VWS V14.00,2013-02-05 04:08:00,
2013-02-04 22:13:00,31.1,22.5,17.72,ENE,62,0.0,0.0,70,0.00,,---,0.00,VWS V14.00,2013-02-05 04:13:00,
2013-02-04 22:18:00,31.1,22.5,17.72,SSE,153,3.6,4.0,70,0.00,,---,0.00,VWS V14.00,2013-02-05 04:18:00,
2013-02-04 22:23:00,31.1,22.1,17.72,SSE,158,2.7,3.1,69,0.00,,---,0.00,VWS V14.00,2013-02-05 04:23:00,
2013-02-04 22:28:00,31.1,22.1,17.72,SSE,157,3.1,3.1,69,0.00,,---,0.00,VWS V14.00,2013-02-05 04:28:00,
2013-02-04 22:33:00,30.9,22.0,17.72,SSE,157,3.6,4.0,69,0.00,,---,0.00,VWS V14.00,2013-02-05 04:33:00,
2013-02-04 22:38:00,30.6,21.6,17.72,SSE,157,3.1,3.1,69,0.00,,---,0.00,VWS V14.00,2013-02-05 04:38:00,
2013-02-04 22:43:00,30.4,21.4,17.72,SSE,157,3.6,3.6,69,0.00,,---,0.00,VWS V14.00,2013-02-05 04:43:00,
2013-02-04 22:48:00,30.2,21.3,17.72,SSE,157,3.6,3.6,69,0.00,,---,0.00,VWS V14.00,2013-02-05 04:48:00,
2013-02-04 22:53:00,30.0,21.1,17.72,SSE,157,3.1,3.1,69,0.00,,---,0.00,VWS V14.00,2013-02-05 04:53:00,
2013-02-04 22:58:00,29.8,20.9,17.72,SSE,157,3.6,4.0,69,0.00,,---,0.00,VWS V14.00,2013-02-05 04:58:00,
2013-02-04 23:00:00,29.8,20.9,17.72,SSE,157,3.1,3.1,69,0.00,,---,0.00,VWS V14.00,2013-02-05 05:00:00,
2013-02-04 23:01:00,29.8,21.3,17.72,SSE,157,2.7,2.7,70,0.00,,---,0.00,VWS V14.00,2013-02-05 05:01:00,
2013-02-04 23:03:00,29.8,21.3,17.72,SSE,157,2.7,4.0,70,0.00,,---,0.00,VWS V14.00,2013-02-05 05:03:00,
2013-02-04 23:08:00,29.7,21.1,17.72,SSE,156,2.7,4.9,70,0.00,,---,0.00,VWS V14.00,2013-02-05 05:08:00,
2013-02-04 23:13:00,29.7,21.1,17.72,SSE,149,5.8,5.8,70,0.00,,---,0.00,VWS V14.00,2013-02-05 05:13:00,
2013-02-04 23:18:00,29.7,21.1,17.72,SE,146,4.0,4.0,70,0.00,,---,0.00,VWS V14.00,2013-02-05 05:18:00,
2013-02-04 23:23:00,29.5,20.9,17.72,SSE,149,4.0,4.0,70,0.00,,---,0.00,VWS V14.00,2013-02-05 05:23:00,
2013-02-04 23:28:00,29.5,20.9,17.72,SE,141,4.0,4.0,70,0.00,,---,0.00,VWS V14.00,2013-02-05 05:28:00,
2013-02-04 23:34:00,29.3,20.7,17.72,SE,140,2.2,3.6,70,0.00,,---,0.00,VWS V14.00,2013-02-05 05:34:00,
2013-02-04 23:39:00,29.3,21.1,17.72,SE,143,2.7,3.6,71,0.00,,---,0.00,VWS V14.00,2013-02-05 05:39:00,
2013-02-04 23:44:00,29.1,20.9,17.72,SE,143,3.6,3.6,71,0.00,,---,0.00,VWS V14.00,2013-02-05 05:44:00,
2013-02-04 23:49:00,29.1,20.9,17.72,SE,143,2.7,2.7,71,0.00,,---,0.00,VWS V14.00,2013-02-05 05:49:00,
2013-02-04 23:54:00,29.1,20.9,17.72,SE,143,0.0,0.0,71,0.00,,---,0.00,VWS V14.00,2013-02-05 05:54:00,
2013-02-04 23:59:00,29.1,20.9,17.72,SE,144,2.2,2.2,71,0.00,,---,0.00,VWS V14.00,2013-02-05 05:59:00,